Carnival Pride — H3VU — position and weather

sailwx.info

Track history (hours):
 
Tides and Currents Weather Stations Pressure Air Temp Water Temp Dewpoint Dewpoint Depression Visibility Wind Speed Wind Dir Waves Ship Positions

Carnival Pride

Operator: Carnival Cruise Lines

Last reported at 2017-Mar-22 22:30 UTC. Time now 2017-Mar-23 18:14 UTC.
Position N 28°25' W 080°38'.

Type: Ship. MMSI: 354215000.

Date/timePositionNaut miles runAvg speedWind from/ knotsBaromVisibWave heightAir tempDewpointWater temp
2017-Mar-22 22:30N 28°25' W 080°38'0 0.0
2017-Mar-22 10:26N 28°25' W 080°38'193 8.4
2017-Mar-21 11:28N 31°36' W 080°03'1312.3
2017-Mar-21 10:23N 31°45' W 079°51'1012.0
2017-Mar-21 09:32N 31°52' W 079°42'1212.2
2017-Mar-21 08:33N 32°00' W 079°32'1312.3
2017-Mar-21 07:29N 32°09' W 079°21'33113.8
2017-Mar-20 07:30N 36°49' W 075°48'1010.0
2017-Mar-20 06:30N 36°55' W 075°57'6616.4
2017-Mar-20 02:28N 38°00' W 076°12'4419.3
2017-Mar-20 00:11N 38°43' W 076°26'1320.0
2017-Mar-19 23:32N 38°56' W 076°23'1515.1
2017-Mar-19 22:33N 39°11' W 076°26'9 3.0
2017-Mar-19 19:26N 39°16' W 076°36'0 0.0
2017-Mar-19 18:26N 39°16' W 076°36'0 0.0
2017-Mar-19 12:33N 39°16' W 076°36'7 6.8
2017-Mar-19 11:33N 39°12' W 076°29'1311.9
2017-Mar-19 10:30N 39°00' W 076°23'3916.6
2017-Mar-19 08:09N 38°21' W 076°19'1419.3
2017-Mar-19 07:24N 38°07' W 076°13'7018.2
2017-Mar-19 03:33N 36°58' W 075°60'10 9.7
2017-Mar-19 02:33N 36°52' W 075°50'  
2017-Mar-14 23:00N 28°36' W 080°06'10212.8 320 / 151013.610.8 18.010.614.0
2017-Mar-14 15:00N 30°18' W 080°12'4210.5 290 / 351012.910.8 13.0 6.815.0
2017-Mar-14 11:00N 31°00' W 080°12'9911.0 340 / 341007.0 5.4 19.017.420.0
2017-Mar-14 02:00N 32°18' W 079°00'4623.2 320 / 301009.0 5.4 16.014.318.0
2017-Mar-14 00:00N 32°48' W 078°18'27116.5 140 / 401008.7 2.2 19.017.415.0
2017-Mar-13 07:33N 36°50' W 075°48'10 9.8
2017-Mar-13 06:33N 36°56' W 075°58'10918.0
2017-Mar-13 00:29N 38°42' W 076°26'1919.9
2017-Mar-12 23:33N 39°01' W 076°23'1313.2
2017-Mar-12 22:33N 39°12' W 076°31'  
Track history (hours):
 
Tides and Currents Weather Stations Pressure Air Temp Water Temp Dewpoint Dewpoint Depression Visibility Wind Speed Wind Dir Waves Ship Positions

Carnival Pride

Operator: Carnival Cruise Lines

Last reported at 2017-Mar-22 22:30 UTC. Time now 2017-Mar-23 18:14 UTC.
Position N 28°25' W 080°38'.

Type: Ship. MMSI: 354215000.

Date/timePositionNaut miles runAvg speedWind from/ knotsBaromVisibWave heightAir tempDewpointWater temp
2017-Mar-22 22:30N 28°25' W 080°38'0 0.0
2017-Mar-22 10:26N 28°25' W 080°38'193 8.4
2017-Mar-21 11:28N 31°36' W 080°03'1312.3
2017-Mar-21 10:23N 31°45' W 079°51'1012.0
2017-Mar-21 09:32N 31°52' W 079°42'1212.2
2017-Mar-21 08:33N 32°00' W 079°32'1312.3
2017-Mar-21 07:29N 32°09' W 079°21'33113.8
2017-Mar-20 07:30N 36°49' W 075°48'1010.0
2017-Mar-20 06:30N 36°55' W 075°57'6616.4
2017-Mar-20 02:28N 38°00' W 076°12'4419.3
2017-Mar-20 00:11N 38°43' W 076°26'1320.0
2017-Mar-19 23:32N 38°56' W 076°23'1515.1
2017-Mar-19 22:33N 39°11' W 076°26'9 3.0
2017-Mar-19 19:26N 39°16' W 076°36'0 0.0
2017-Mar-19 18:26N 39°16' W 076°36'0 0.0
2017-Mar-19 12:33N 39°16' W 076°36'7 6.8
2017-Mar-19 11:33N 39°12' W 076°29'1311.9
2017-Mar-19 10:30N 39°00' W 076°23'3916.6
2017-Mar-19 08:09N 38°21' W 076°19'1419.3
2017-Mar-19 07:24N 38°07' W 076°13'7018.2
2017-Mar-19 03:33N 36°58' W 075°60'10 9.7
2017-Mar-19 02:33N 36°52' W 075°50'  
2017-Mar-14 23:00N 28°36' W 080°06'10212.8 320 / 151013.610.8 18.010.614.0
2017-Mar-14 15:00N 30°18' W 080°12'4210.5 290 / 351012.910.8 13.0 6.815.0
2017-Mar-14 11:00N 31°00' W 080°12'9911.0 340 / 341007.0 5.4 19.017.420.0
2017-Mar-14 02:00N 32°18' W 079°00'4623.2 320 / 301009.0 5.4 16.014.318.0
2017-Mar-14 00:00N 32°48' W 078°18'27116.5 140 / 401008.7 2.2 19.017.415.0
2017-Mar-13 07:33N 36°50' W 075°48'10 9.8
2017-Mar-13 06:33N 36°56' W 075°58'10918.0
2017-Mar-13 00:29N 38°42' W 076°26'1919.9
2017-Mar-12 23:33N 39°01' W 076°23'1313.2
2017-Mar-12 22:33N 39°12' W 076°31'  

Dump ship's entire track history